Wind_Speed
18 14 13 14 15 14 16 16 18 17 15 15 22 25 27 30 32 36 37 39 27 48 48 46 54 57 59 57 51 48 43 42 36 36 44 44 43 41 38 36 35 32 29
15 10 10 8 10 12 12 14 16 18 16 15 20 25 25 27 28 33 42 41 40 40 36 45 51 55 57 58 55 48 46 42 39 38 46 47 45 40 40 41 40 35 30
11 7 8 11 13 15 16 17 18 18 17 18 21 21 27 26 29 33 36 40 46 49 45 47 51 53 56 54 52 53 49 46 47 37 41 49 48 43 43 41 39 35 30
7 5 8 12 16 17 18 18 19 19 19 19 19 24 25 28 31 33 39 40 41 54 45 48 47 46 56 56 54 54 56 53 43 38 46 54 52 48 46 46 39 34 34
7 4 10 15 18 20 20 19 18 18 18 20 22 24 27 30 31 33 34 40 43 42 39 52 52 45 51 53 53 54 58 54 50 50 54 58 59 57 54 47 42 38 34
2 6 10 14 18 21 22 20 19 18 18 17 17 22 27 30 34 37 32 36 41 43 43 40 39 46 44 49 46 52 55 59 59 54 57 63 64 62 57 52 49 48 40
3 9 13 16 20 24 26 24 20 19 19 19 20 19 21 24 28 33 38 34 37 45 42 41 40 44 46 49 48 46 52 55 57 56 61 63 64 66 63 58 53 50 44
12 14 18 20 23 26 28 29 26 23 22 23 22 20 20 24 26 25 31 38 34 35 41 44 38 43 41 50 51 54 56 55 61 62 53 59 63 64 60 56 55 49 39
15 15 18 21 24 28 29 30 30 26 23 22 22 21 20 20 21 25 28 29 35 34 33 39 36 40 40 42 45 56 57 61 62 64 59 61 59 54 59 60 55 53 42
17 18 19 20 21 24 25 27 30 28 24 22 21 20 18 17 15 19 29 28 30 34 38 32 36 37 39 44 49 53 62 63 62 58 51 49 50 57 57 56 55 58 50
20 19 19 19 22 23 23 25 26 28 23 20 19 19 18 15 13 11 14 22 22 24 31 34 31 30 32 43 46 58 61 61 61 59 52 51 56 61 60 56 49 48 52
20 19 19 19 20 21 22 22 23 25 23 19 18 17 18 16 12 8 4 7 14 21 26 25 26 26 30 40 51 54 56 60 60 58 54 54 55 55 55 49 45 44 47
22 22 21 22 22 23 23 21 21 22 22 18 17 17 17 16 12 11 8 4 10 14 16 16 17 24 27 42 57 55 54 59 60 59 56 52 51 51 51 49 44 39 38
24 23 23 24 25 24 23 24 20 20 20 17 15 15 15 14 12 11 11 6 8 11 14 18 23 30 32 44 50 48 53 57 61 56 52 53 51 47 46 46 43 40 40
26 25 26 26 27 26 20 22 21 17 15 16 14 13 13 12 11 7 8 6 3 10 16 22 23 33 40 44 46 52 54 55 56 53 54 51 49 49 48 47 42 42 42
25 27 27 28 29 29 25 25 20 15 13 13 12 11 9 9 7 5 4 6 7 10 18 28 36 42 46 50 52 52 51 55 54 52 50 50 52 51 50 48 45 43 40
24 27 27 28 27 27 26 25 25 17 12 12 10 8 6 5 4 4 4 6 13 17 26 35 40 43 47 48 49 49 51 51 47 49 49 51 49 48 50 49 45 42 39
24 25 26 27 26 26 24 23 22 18 15 14 9 6 2 2 4 4 4 6 14 21 26 31 34 37 42 43 45 45 44 46 47 48 48 47 48 49 50 49 46 43 40
25 25 26 26 25 25 24 21 20 16 13 15 11 7 2 2 4 5 6 9 13 18 23 28 32 34 37 40 41 42 43 43 42 43 43 44 45 47 48 46 45 42 40
25 25 25 26 25 24 25 23 21 17 14 14 14 10 7 8 10 9 8 10 13 14 18 23 25 28 33 35 38 39 38 36 36 36 37 40 43 46 46 46 44 42 39
25 26 25 26 24 23 23 22 21 19 16 14 15 13 12 13 13 11 11 12 14 16 19 22 25 29 33 35 36 36 35 36 36 38 39 41 44 45 43 41 41 40 40
25 25 24 23 25 24 22 22 21 20 18 14 14 13 13 16 16 13 12 12 14 17 21 23 25 27 30 32 33 34 35 38 39 39 40 41 42 42 41 41 41 41 38
25 25 23 23 22 23 22 21 20 19 17 16 14 14 13 17 19 18 16 16 15 16 18 21 24 27 28 28 29 30 32 35 36 38 41 42 42 41 41 41 40 39 37
26 26 25 24 22 22 22 21 20 19 17 16 13 13 14 15 19 20 20 19 19 20 19 20 20 22 27 27 27 30 31 33 33 35 37 39 40 39 39 39 39 37 37
26 27 26 24 22 22 22 22 19 19 18 16 14 13 13 14 16 19 20 21 23 23 22 20 20 22 23 26 29 31 32 32 32 34 37 37 38 38 39 39 38 39 38
27 26 26 24 23 23 21 22 20 19 19 16 15 14 14 14 15 17 19 20 22 26 27 27 25 23 25 26 27 29 30 33 34 34 36 36 37 39 39 38 37 37 36
Wind_Direction
285 278 282 291 300 298 291 288 279 280 273 256 252 254 254 249 241 242 239 242 242 236 232 235 226 227 226 223 212 208 221 209 200 201 206 194 191 193 187 193 194 200 199
279 283 297 315 320 316 309 304 297 291 285 278 259 255 253 249 246 241 239 236 228 226 238 238 220 226 224 223 221 210 199 206 221 207 198 194 195 190 185 187 190 197 197
250 262 302 326 326 331 332 321 318 316 305 282 267 261 252 253 252 246 244 246 236 235 227 240 231 232 228 226 218 209 211 219 202 208 196 194 193 190 188 191 192 193 193
291 272 310 330 336 339 336 330 327 318 306 291 274 262 254 243 245 247 246 240 246 235 243 237 233 234 229 226 223 217 215 202 195 197 193 189 193 190 194 191 186 191 185
306 304 332 342 343 341 340 340 335 325 313 302 291 277 265 250 237 239 246 244 238 236 235 238 233 234 236 234 231 216 214 201 191 190 187 186 187 188 192 189 186 179 182
10 331 350 350 347 346 343 342 343 338 328 316 301 286 277 269 254 241 239 244 238 232 232 230 237 238 239 234 235 232 226 204 192 189 191 190 188 189 191 189 187 180 172
24 17 6 355 353 353 354 351 347 341 334 326 317 303 289 280 269 244 236 243 237 225 238 229 227 232 233 234 232 241 237 227 220 213 198 198 194 193 191 188 190 189 186
37 23 2 353 351 355 356 356 348 343 338 330 321 310 288 286 278 264 238 235 238 231 226 230 224 230 227 229 220 217 224 229 221 217 216 204 202 196 194 191 190 187 186
16 1 353 353 351 351 350 350 349 340 333 328 324 317 303 289 277 260 240 241 235 236 240 233 233 231 234 225 228 221 213 211 214 212 211 206 201 197 190 188 181 183 176
351 344 337 336 337 338 340 340 341 340 330 327 326 323 313 300 296 271 237 240 240 232 228 231 226 233 234 235 226 218 208 206 204 199 199 199 197 193 196 201 194 188 179
336 333 333 333 331 325 329 331 332 332 329 328 327 330 328 320 304 299 237 229 232 225 222 226 227 227 240 232 229 222 220 211 201 198 192 188 190 192 195 196 196 192 188
334 333 332 332 330 327 322 321 323 327 329 325 328 333 335 340 334 311 292 214 214 223 226 230 230 231 238 236 221 218 209 208 197 191 187 187 187 189 192 193 190 195 194
349 343 338 332 330 324 321 316 318 322 325 320 324 330 336 337 338 341 341 264 220 217 222 225 235 233 223 216 204 203 197 192 190 183 182 183 186 184 188 187 190 191 188
352 350 347 348 349 349 347 341 323 319 319 314 314 320 328 334 335 327 322 311 231 228 225 232 217 199 203 203 193 191 183 185 186 180 175 175 174 177 181 183 182 184 188
353 352 351 350 353 346 337 338 332 324 316 306 308 309 317 321 325 323 323 306 260 225 217 202 196 184 180 174 171 174 178 182 177 176 172 169 168 172 176 179 179 182 187
346 351 352 352 352 350 344 340 338 334 324 307 297 299 302 304 309 297 291 282 247 226 201 184 174 174 172 170 172 173 181 180 176 173 171 170 169 172 174 177 179 184 185
347 352 352 353 350 348 347 341 336 331 333 321 305 292 291 284 276 266 256 231 207 204 190 177 176 177 176 177 179 180 178 176 177 176 175 170 172 175 176 174 178 182 187
351 352 351 349 348 346 343 340 333 331 330 321 316 295 294 277 238 235 235 215 197 191 183 178 177 178 177 175 174 173 176 178 176 175 174 174 175 177 177 178 179 183 188
350 352 351 348 348 346 344 341 331 322 328 317 307 288 227 215 227 229 215 211 203 197 197 187 183 181 181 181 178 174 173 173 173 173 174 176 177 181 179 180 182 187 188
348 347 352 351 348 345 343 343 334 326 323 318 304 281 235 202 204 208 206 201 202 203 198 194 189 184 176 170 166 164 161 162 167 174 180 181 182 183 181 183 185 184 188
341 343 347 348 348 344 342 339 331 327 317 313 304 290 255 227 219 218 209 202 199 196 189 181 175 172 169 166 165 165 166 169 175 179 183 183 182 183 185 185 185 185 189
336 338 340 340 345 343 343 337 334 324 319 309 306 297 265 237 230 220 208 200 196 197 193 186 181 178 176 174 172 171 177 183 185 184 183 183 184 185 184 186 186 189 191
336 336 335 336 339 341 343 340 333 326 318 307 300 293 275 245 236 229 220 209 196 185 187 189 189 183 182 180 180 183 193 191 188 186 184 184 185 185 187 188 190 191 192
329 332 333 333 336 336 337 336 332 326 319 307 292 285 279 262 249 239 231 222 208 197 195 191 187 191 186 183 190 192 194 193 191 190 189 188 188 188 189 192 193 194 197
321 322 326 329 331 330 327 332 331 327 317 306 297 284 276 269 258 248 239 227 218 207 201 199 191 190 194 195 192 191 191 192 194 193 192 193 192 192 194 194 195 198 199
314 313 314 318 321 325 325 321 326 326 319 309 300 286 274 266 261 254 245 234 221 214 209 206 201 198 197 195 193 192 191 191 192 194 193 193 197 197 196 197 199 199 200
Height
1418 1418 1414 1415 1414 1410 1412 1410 1410 1410 1401 1400 1404 1406 1408 1410 1409 1412 1414 1422 1426 1427 1429 1433 1436 1440 1445 1450 1455 1460 1465 1476 1483 1495 1506 1512 1520 1522 1529 1535 1540 1543 1549
1413 1414 1414 1409 1412 1411 1407 1405 1405 1400 1390 1393 1397 1399 1400 1400 1400 1404 1407 1411 1413 1416 1423 1427 1428 1433 1436 1441 1447 1452 1457 1463 1475 1485 1496 1504 1516 1520 1525 1528 1534 1538 1543
1408 1409 1409 1407 1409 1406 1400 1398 1394 1387 1387 1387 1388 1389 1391 1392 1392 1396 1398 1400 1403 1406 1407 1416 1421 1423 1428 1432 1439 1445 1450 1455 1465 1475 1483 1498 1506 1512 1521 1525 1528 1532 1539
1403 1405 1406 1405 1403 1399 1396 1392 1387 1385 1383 1382 1382 1382 1382 1383 1385 1387 1390 1389 1392 1394 1398 1401 1408 1412 1416 1421 1426 1433 1441 1447 1454 1466 1477 1485 1492 1502 1514 1516 1522 1529 1532
1401 1402 1402 1400 1397 1394 1391 1387 1383 1381 1378 1376 1374 1373 1373 1373 1374 1376 1378 1380 1382 1385 1388 1391 1396 1402 1406 1412 1417 1422 1429 1436 1445 1454 1469 1471 1479 1487 1497 1508 1517 1523 1529
1398 1399 1398 1397 1394 1391 1387 1383 1379 1376 1374 1371 1369 1366 1363 1361 1362 1366 1368 1370 1372 1374 1378 1383 1386 1396 1398 1401 1409 1413 1416 1425 1435 1440 1453 1460 1463 1471 1487 1496 1504 1510 1521
1396 1396 1394 1392 1390 1386 1382 1378 1374 1371 1368 1365 1362 1359 1357 1354 1353 1353 1358 1360 1363 1359 1368 1374 1381 1386 1391 1394 1400 1404 1410 1416 1421 1426 1434 1445 1452 1453 1467 1483 1493 1502 1508
1394 1393 1391 1390 1387 1384 1380 1375 1371 1367 1363 1359 1356 1353 1350 1347 1345 1344 1346 1349 1352 1354 1358 1365 1370 1375 1380 1387 1391 1397 1405 1409 1417 1419 1424 1433 1442 1448 1460 1473 1484 1499 1508
1393 1392 1390 1388 1386 1382 1378 1373 1368 1363 1359 1355 1351 1347 1343 1340 1337 1335 1337 1339 1342 1344 1350 1354 1362 1365 1370 1377 1383 1389 1397 1403 1410 1416 1422 1427 1439 1448 1457 1467 1476 1489 1501
1392 1390 1389 1386 1383 1380 1377 1373 1368 1361 1356 1351 1346 1342 1338 1333 1331 1328 1328 1328 1331 1338 1343 1345 1352 1357 1361 1368 1373 1380 1387 1392 1400 1409 1418 1429 1439 1449 1453 1462 1465 1478 1494
1390 1388 1385 1382 1379 1376 1372 1369 1364 1359 1353 1348 1343 1338 1334 1329 1326 1322 1321 1322 1324 1329 1334 1339 1343 1349 1354 1358 1364 1368 1375 1384 1393 1402 1413 1422 1434 1443 1452 1461 1470 1477 1488
1387 1385 1381 1378 1374 1371 1367 1363 1360 1355 1349 1345 1340 1336 1331 1327 1323 1320 1317 1317 1321 1325 1328 1333 1337 1342 1347 1351 1355 1362 1368 1376 1387 1396 1408 1416 1428 1439 1451 1462 1471 1479 1489
1385 1381 1377 1373 1369 1365 1361 1358 1355 1351 1347 1343 1339 1334 1330 1326 1323 1320 1317 1316 1317 1320 1324 1328 1331 1336 1342 1347 1350 1356 1364 1371 1381 1390 1401 1413 1426 1434 1449 1459 1470 1480 1491
1383 1378 1374 1368 1364 1360 1358 1354 1350 1347 1344 1341 1338 1334 1330 1327 1324 1321 1318 1316 1316 1318 1321 1324 1328 1333 1338 1342 1349 1356 1363 1369 1378 1388 1398 1413 1421 1434 1447 1459 1466 1478 1488
1382 1377 1372 1366 1361 1357 1355 1350 1347 1344 1341 1338 1336 1333 1330 1327 1325 1323 1320 1318 1317 1317 1319 1322 1326 1329 1334 1343 1352 1359 1364 1371 1378 1388 1399 1410 1419 1434 1445 1456 1463 1475 1483
1381 1375 1369 1363 1358 1354 1350 1346 1344 1340 1338 1336 1334 1332 1329 1327 1326 1324 1322 1321 1320 1320 1320 1321 1325 1330 1335 1342 1349 1356 1363 1370 1380 1389 1399 1409 1418 1429 1441 1453 1460 1471 1480
1378 1372 1366 1361 1357 1353 1349 1345 1340 1337 1335 1333 1332 1330 1328 1327 1326 1325 1324 1323 1323 1323 1323 1324 1327 1332 1338 1343 1349 1355 1363 1373 1382 1390 1399 1409 1417 1427 1437 1447 1455 1465 1478
1375 1370 1365 1360 1356 1351 1347 1343 1340 1336 1333 1332 1330 1329 1327 1326 1326 1326 1325 1325 1326 1327 1328 1329 1332 1336 1340 1345 1351 1358 1365 1374 1382 1390 1398 1407 1415 1423 1433 1440 1450 1461 1473
1373 1368 1363 1359 1354 1350 1345 1341 1338 1335 1333 1331 1329 1328 1327 1326 1327 1326 1326 1326 1327 1328 1331 1333 1336 1339 1343 1347 1353 1359 1366 1374 1382 1390 1399 1407 1414 1423 1430 1439 1449 1460 1469
1371 1366 1361 1357 1352 1348 1344 1339 1336 1333 1331 1330 1328 1327 1327 1326 1327 1327 1327 1328 1329 1330 1332 1335 1338 1341 1345 1350 1356 1363 1369 1377 1385 1393 1400 1407 1415 1423 1430 1438 1448 1456 1466
1369 1364 1359 1355 1350 1347 1342 1338 1335 1332 1329 1328 1327 1326 1326 1326 1326 1327 1328 1329 1330 1332 1335 1338 1341 1344 1349 1354 1359 1366 1373 1379 1387 1393 1400 1407 1415 1422 1431 1440 1447 1456 1462
1367 1362 1358 1353 1349 1345 1340 1336 1333 1330 1327 1325 1325 1324 1324 1325 1325 1327 1328 1330 1331 1333 1336 1340 1344 1348 1352 1356 1361 1367 1374 1380 1386 1392 1399 1407 1415 1422 1430 1437 1445 1451 1458
1364 1359 1355 1351 1346 1342 1337 1334 1331 1328 1325 1323 1322 1321 1321 1321 1323 1325 1327 1330 1332 1334 1337 1341 1345 1348 1353 1358 1363 1369 1375 1380 1386 1393 1399 1406 1413 1420 1428 1434 1440 1447 1454
1360 1356 1352 1348 1343 1339 1335 1331 1329 1326 1323 1321 1318 1318 1318 1319 1319 1321 1324 1327 1330 1333 1336 1340 1343 1348 1351 1356 1362 1368 1374 1380 1387 1393 1400 1405 1412 1418 1425 1431 1438 1445 1451
1354 1351 1348 1344 1339 1335 1333 1329 1325 1322 1320 1318 1316 1315 1315 1315 1316 1317 1320 1324 1327 1331 1333 1337 1341 1347 1352 1356 1361 1366 1372 1378 1385 1391 1397 1404 1410 1416 1422 1428 1434 1441 1447
1349 1346 1343 1339 1336 1332 1329 1326 1322 1319 1316 1314 1312 1311 1311 1311 1312 1313 1315 1319 1323 1327 1331 1335 1339 1344 1349 1354 1359 1364 1370 1375 1382 1389 1395 1401 1407 1412 1418 1424 1430 1436 1442